Regional Weather Roundup
Issued by NWS

Home | Current Version | Previous Version | Graphics & Text | Print | Product List | Glossary On
Versions: 1 2 3 4 5 6 7 8 9 10 11 12 13 14 15 16 17 18 19 20 21 22 23 24 25 26 27 28 29 30 31 32 33 34 35 36 37 38 39 40 41 42 43 44 45 46 47 48 49 50
000
ASUS43 KTOP 212359
RWRKS

WEATHER ROUNDUP FOR KANSAS
NATIONAL WEATHER SERVICE GOODLAND KS
700 PM CDT TUE OCT 21 2014

NOTE:  "FAIR" INDICATES FEW OR NO CLOUDS BELOW 12,000 FEET WITH NO
SIGNIFICANT WEATHER AND/OR OBSTRUCTIONS TO VISIBILITY.

KSZ001>006-013>018-027>032-041>047-220100-
NORTHWEST KANSAS

CITY           SKY/WX    TMP DP  RH WIND       PRES   REMARKS
GOODLAND       CLEAR     71  45  39 S14       29.93R
6HR MIN TEMP:  66; 6HR MAX TEMP:  80;

HAYS           CLEAR     72  55  56 S10       29.97R
HILL CITY      CLEAR     74  55  51 SE7       29.95S
6HR MIN TEMP:  74; 6HR MAX TEMP:  80;

RUSSELL        PTCLDY    70  58  65 SE9       29.96R
6HR MIN TEMP:  70; 6HR MAX TEMP:  79;

$$

KSZ061>065-074>080-084>089-220100-
SOUTHWEST KANSAS

CITY           SKY/WX    TMP DP  RH WIND       PRES   REMARKS
DODGE CITY     CLEAR     72  50  45 S10       29.99S
6HR MIN TEMP:  72; 6HR MAX TEMP:  81;

ELKHART          N/A     71  47  42 S10         N/A
GARDEN CITY    PTCLDY    70  50  49 S8        29.97S
6HR MIN TEMP:  70; 6HR MAX TEMP:  80;

GREAT BEND     CLEAR     73  55  53 S10       29.98R
LIBERAL        CLEAR     72  48  43 S12       30.01S
$$

KSZ066>073-081>083-090>101-220100-
SOUTHEAST KANSAS

CITY           SKY/WX    TMP DP  RH WIND       PRES   REMARKS
CHANUTE        CLEAR     68  56  65 E5        30.05S
6HR MIN TEMP:  68; 6HR MAX TEMP:  76;

COFFEYVILLE    CLEAR     70  57  63 E5        30.04R
6HR MIN TEMP:  70; 6HR MAX TEMP:  79;

HUTCHINSON     CLEAR     72  58  61 SE8       30.00R
6HR MIN TEMP:  72; 6HR MAX TEMP:  82; 6HR PCP: TRACE;

NEWTON         CLEAR     70  55  60 SE7       30.04R
PARSONS        CLEAR     66  58  75 CALM      30.05S
6HR MIN TEMP:  66; 6HR MAX TEMP:  78;

WICHITA INTL   CLEAR     73  58  59 SE8       30.00S
6HR MIN TEMP:  73; 6HR MAX TEMP:  82;

WICHITA JABRA  CLEAR     71  59  65 SE6       30.01R
6HR MIN TEMP:  71; 6HR MAX TEMP:  80;

WINFIELD       CLEAR     73  61  65 SE6       30.02S
6HR MIN TEMP:  73; 6HR MAX TEMP:  81;

$$

KSZ007>012-019>026-033>040-048>060-102>105-220100-
NORTHEAST KANSAS

CITY           SKY/WX    TMP DP  RH WIND       PRES   REMARKS
CONCORDIA      CLEAR     66  54  65 SE8       29.99S
6HR MIN TEMP:  66; 6HR MAX TEMP:  77;

EMPORIA        CLEAR     66  55  67 SE7       30.04R
6HR MIN TEMP:  66; 6HR MAX TEMP:  76;

LAWRENCE       CLEAR     62  43  49 E7        30.06R
6HR MIN TEMP:  62; 6HR MAX TEMP:  75;

MANHATTAN      CLEAR     70  51  51 SE6       30.01R
6HR MIN TEMP:  70; 6HR MAX TEMP:  79;

OLATHE IND     CLEAR     65  45  48 E5        30.07S
6HR MIN TEMP:  65; 6HR MAX TEMP:  74;

OLATHE EXE     CLEAR     66  43  43 E6        30.07R
6HR MIN TEMP:  66; 6HR MAX TEMP:  74;

SALINA         CLEAR     72  58  61 SE8       29.99R
6HR MIN TEMP:  72; 6HR MAX TEMP:  80;

TOPEKA BILLARD CLEAR     65  44  46 E5        30.04S
6HR MIN TEMP:  65; 6HR MAX TEMP:  78;

TOPEKA FORBES  CLEAR     65  45  48 E7        30.04S
6HR MIN TEMP:  65; 6HR MAX TEMP:  76;

$$



USA.gov is the U.S. government's official web portal to all federal, state and local government web resources and services.